Date String (YYYY-MM-DD hh:mm:ss) UTC,Instrument flags,absolute air pressure of the measurement (hPa),sample flow rate (lpm),inlet stack bypass flow (lpm),air temperature of the measurement (°C),ambient temperature measured by the external sensor (°C),aerosol sample conditioner tube jacket temperature (°C),OPC LED temperature (°C),internal box temperature (°C),relative humidity of the measurement (%),span deviation,mass concentration of particles derived from Lorenz-Mie calculation of OPC scattering (μg/m³),mass concentration of particles derived from Lorenz-Mie calculation of OPC scattering (μg/m³),mass concentration of particles derived from Lorenz-Mie calculation of OPC scattering (μg/m³)
DateTimeUTC,F1_M11,P_M11,Q1_M11,Q2_M11,T1_M11,T2_M11,T3_M11,T4_M11,T5_M11,U1_M11,ZSPAN_M11,X0_M11,X2_M11,X1_M11
2024-02-25 10:00:00,SystemResetWarning,0822.8,4.99,000.00,020.6,019.7,000.0,029.1,022.3,06.9,0000.0,0013.52,0004.18,0001.71
2024-02-25 10:01:00,SystemResetWarning,0823.1,5.01,000.00,020.6,019.7,000.0,029.1,022.3,07.0,0000.0,0013.45,0004.17,0001.72
2024-02-25 10:02:00,SystemResetWarning,0823.0,5.01,000.00,020.6,019.7,000.0,029.1,022.3,06.9,0000.0,0012.77,0004.11,0001.72
2024-02-25 10:03:00,SystemResetWarning,0822.8,5.00,000.00,020.6,019.7,000.0,029.1,022.3,06.9,0000.0,0012.43,0004.11,0001.71
2024-02-25 10:04:00,SystemResetWarning,0822.9,4.99,000.00,020.6,019.7,000.0,029.0,022.3,06.9,0000.0,0012.33,0004.09,0001.68
2024-02-25 10:05:00,SystemResetWarning,0822.8,5.00,000.00,020.6,019.7,000.0,029.0,022.3,07.0,0000.0,0011.83,0004.05,0001.66
2024-02-25 10:06:00,SystemResetWarning,0822.8,5.00,000.00,020.6,019.7,000.0,029.0,022.2,07.0,0000.0,0012.03,0004.04,0001.67
2024-02-25 10:07:00,SystemResetWarning,0822.8,5.01,000.00,020.6,019.7,000.0,029.0,022.2,06.8,0000.0,0012.25,0004.00,0001.67
2024-02-25 10:08:00,SystemResetWarning,0823.0,5.01,000.00,020.6,019.7,000.0,029.0,022.2,06.8,0000.0,0012.51,0003.97,0001.66
2024-02-25 10:09:00,SystemResetWarning,0822.9,4.99,000.00,020.5,019.7,000.0,029.0,022.2,06.8,0000.0,0012.28,0003.92,0001.66
2024-02-25 10:10:00,SystemResetWarning,0823.1,5.00,000.00,020.5,019.7,000.0,029.0,022.2,06.7,0000.0,0013.37,0003.85,0001.67
2024-02-25 10:11:00,SystemResetWarning,0822.8,5.01,000.00,020.5,019.7,000.0,029.0,022.2,06.7,0000.0,0013.35,0003.87,0001.66
2024-02-25 10:12:00,SystemResetWarning,0823.0,5.00,000.00,020.5,019.7,000.0,029.0,022.2,06.6,0000.0,0013.20,0003.80,0001.64
2024-02-25 10:13:00,SystemResetWarning,0822.9,5.00,000.00,020.5,019.6,000.0,029.0,022.2,06.6,0000.0,0012.72,0003.74,0001.64
2024-02-25 10:14:00,SystemResetWarning,0823.0,5.00,000.00,020.5,019.6,000.0,029.0,022.2,06.6,0000.0,0012.57,0003.68,0001.63
2024-02-25 10:15:00,SystemResetWarning,0822.6,4.99,000.00,020.5,019.6,000.0,029.0,022.2,06.4,0000.0,0012.54,0003.67,0001.64
2024-02-25 10:16:00,SystemResetWarning,0822.7,4.99,000.00,020.5,019.6,000.0,029.0,022.2,06.5,0000.0,0012.49,0003.72,0001.65
2024-02-25 10:17:00,SystemResetWarning,0822.7,5.00,000.00,020.5,019.6,000.0,029.0,022.1,06.8,0000.0,0012.52,0003.72,0001.66
2024-02-25 10:18:00,SystemResetWarning,0822.7,5.01,000.00,020.5,019.6,000.0,029.0,022.2,07.0,0000.0,0012.83,0003.73,0001.64
2024-02-25 10:19:00,SystemResetWarning,0822.8,5.00,000.00,020.5,019.6,000.0,028.9,022.1,06.9,0000.0,0012.57,0003.73,0001.64
2024-02-25 10:20:00,SystemResetWarning,0822.7,5.01,000.00,020.5,019.6,000.0,028.9,022.1,06.9,0000.0,0012.53,0003.78,0001.65
2024-02-25 10:21:00,SystemResetWarning,0822.7,4.99,000.00,020.5,019.6,000.0,028.9,022.2,07.0,0000.0,0011.90,0003.78,0001.66
2024-02-25 10:22:00,SystemResetWarning,0822.7,4.99,000.00,020.5,019.5,000.0,028.9,022.1,06.9,0000.0,0011.74,0003.81,0001.65
2024-02-25 10:23:00,SystemResetWarning,0822.8,5.01,000.00,020.5,019.5,000.0,028.9,022.2,07.0,0000.0,0011.91,0003.82,0001.65
2024-02-25 10:24:00,SystemResetWarning,0822.8,5.01,000.00,020.4,019.5,000.0,028.9,022.1,07.0,0000.0,0012.29,0003.87,0001.64
2024-02-25 10:25:00,SystemResetWarning,0822.7,4.99,000.00,020.4,019.5,000.0,028.9,022.1,07.0,0000.0,0012.41,0003.96,0001.65
2024-02-25 10:26:00,SystemResetWarning,0822.8,4.99,000.00,020.4,019.5,000.0,028.9,022.1,06.8,0000.0,0012.26,0003.97,0001.65
2024-02-25 10:27:00,SystemResetWarning,0823.0,4.99,000.00,020.4,019.5,000.0,028.9,022.1,06.9,0000.0,0012.30,0003.99,0001.64
2024-02-25 10:28:00,SystemResetWarning,0822.8,5.01,000.00,020.4,019.5,000.0,028.8,022.1,07.0,0000.0,0011.99,0004.00,0001.62
2024-02-25 10:29:00,SystemResetWarning,0822.6,5.01,000.00,020.4,019.5,000.0,028.8,022.1,06.9,0000.0,0011.17,0003.97,0001.63
2024-02-25 10:30:00,SystemResetWarning,0822.7,5.00,000.00,020.4,019.4,000.0,028.8,022.1,06.7,0000.0,0011.11,0003.96,0001.63
2024-02-25 10:31:00,SystemResetWarning,0822.8,4.99,000.00,020.4,019.4,000.0,028.8,022.0,06.9,0000.0,0011.01,0003.88,0001.62
2024-02-25 10:32:00,SystemResetWarning,0822.6,5.00,000.00,020.3,019.4,000.0,028.8,022.0,07.0,0000.0,0011.69,0003.84,0001.61
2024-02-25 10:33:00,SystemResetWarning,0822.6,5.01,000.00,020.3,019.4,000.0,028.8,022.0,06.9,0000.0,0011.46,0003.83,0001.61
2024-02-25 10:34:00,SystemResetWarning,0822.8,5.01,000.00,020.3,019.4,000.0,028.8,022.0,06.9,0000.0,0011.49,0003.88,0001.62
2024-02-25 10:35:00,SystemResetWarning,0822.7,5.00,000.00,020.3,019.4,000.0,028.8,022.0,07.0,0000.0,0011.29,0003.91,0001.64
2024-02-25 10:36:00,SystemResetWarning,0822.7,5.00,000.00,020.3,019.4,000.0,028.8,022.0,07.0,0000.0,0011.73,0003.91,0001.65
2024-02-25 10:37:00,SystemResetWarning,0822.6,5.00,000.00,020.3,019.4,000.0,028.7,021.9,06.9,0000.0,0011.87,0003.98,0001.66
2024-02-25 10:38:00,SystemResetWarning,0822.7,5.00,000.00,020.3,019.3,000.0,028.7,021.9,06.9,0000.0,0012.29,0003.95,0001.68
2024-02-25 10:39:00,SystemResetWarning,0822.8,5.00,000.00,020.3,019.3,000.0,028.7,021.9,06.7,0000.0,0012.72,0003.95,0001.68
2024-02-25 10:40:00,SystemResetWarning,0822.7,4.99,000.00,020.2,019.3,000.0,028.7,021.9,06.8,0000.0,0012.89,0003.97,0001.69
2024-02-25 10:41:00,SystemResetWarning,0822.8,5.00,000.00,020.2,019.3,000.0,028.7,021.9,07.0,0000.0,0012.83,0003.98,0001.68
2024-02-25 10:42:00,SystemResetWarning,0822.7,5.02,000.00,020.2,019.3,000.0,028.7,021.9,07.1,0000.0,0013.17,0004.05,0001.71
2024-02-25 10:43:00,SystemResetWarning,0822.7,5.00,000.00,020.2,019.3,000.0,028.7,021.9,07.1,0000.0,0012.67,0004.10,0001.71
2024-02-25 10:44:00,SystemResetWarning,0822.6,4.99,000.00,020.2,019.3,000.0,028.7,021.9,06.9,0000.0,0012.76,0004.13,0001.71
2024-02-25 10:45:00,SystemResetWarning,0822.8,4.99,000.00,020.2,019.2,000.0,028.7,021.9,07.0,0000.0,0012.77,0004.12,0001.71
2024-02-25 10:46:00,SystemResetWarning,0822.7,5.00,000.00,020.2,019.2,000.0,028.6,021.8,07.1,0000.0,0012.88,0004.10,0001.70
2024-02-25 10:47:00,SystemResetWarning,0822.9,5.01,000.00,020.2,019.2,000.0,028.6,021.8,07.2,0000.0,0012.73,0004.05,0001.69
2024-02-25 10:48:00,SystemResetWarning,0822.7,5.01,000.00,020.2,019.3,000.0,028.6,021.8,07.0,0000.0,0012.80,0004.02,0001.67
2024-02-25 10:49:00,SystemResetWarning,0822.6,5.00,000.00,020.2,019.3,000.0,028.6,021.8,06.9,0000.0,0012.91,0004.03,0001.68
2024-02-25 10:50:00,SystemResetWarning,0822.4,4.99,000.00,020.2,019.3,000.0,028.6,021.8,06.9,0000.0,0012.52,0004.05,0001.68
2024-02-25 10:51:00,SystemResetWarning,0822.4,4.99,000.00,020.1,019.2,000.0,028.6,021.8,06.9,0000.0,0013.35,0004.06,0001.69
2024-02-25 10:52:00,SystemResetWarning,0822.4,5.00,000.00,020.1,019.2,000.0,028.5,021.8,06.9,0000.0,0013.63,0004.04,0001.70
2024-02-25 10:53:00,SystemResetWarning,0822.4,5.02,000.00,020.1,019.2,000.0,028.5,021.8,06.9,0000.0,0013.61,0004.06,0001.70
2024-02-25 10:54:00,SystemResetWarning,0822.6,4.99,000.00,020.1,019.2,000.0,028.5,021.7,07.0,0000.0,0013.42,0004.01,0001.70
2024-02-25 10:55:00,SystemResetWarning,0822.5,4.99,000.00,020.1,019.2,000.0,028.5,021.7,06.9,0000.0,0013.38,0003.98,0001.70
2024-02-25 10:56:00,SystemResetWarning,0822.4,5.00,000.00,020.1,019.2,000.0,028.5,021.7,07.0,0000.0,0012.97,0003.92,0001.71
2024-02-25 10:57:00,SystemResetWarning,0822.5,5.00,000.00,020.1,019.2,000.0,028.4,021.7,07.0,0000.0,0012.84,0003.92,0001.72
2024-02-25 10:58:00,SystemResetWarning,0822.5,5.01,000.00,020.1,019.2,000.0,028.4,021.7,07.0,0000.0,0012.81,0003.96,0001.73
2024-02-25 10:59:00,SystemResetWarning,0822.4,5.01,000.00,020.0,019.2,000.0,028.4,021.7,06.8,0000.0,0012.78,0003.97,0001.73
